Погода в Лагуате

Алжир     33°47′06″N   2°52′47″E
темп.,
°C
ветер,
м/с
пор.,
м/с
влажн.,
%
обл.,
%
осадки,
мм/ч
давл.,
гПа
погр.,
м
8 марта, пн
пн801:00+11всв235741 0.0 101326
04:00+10ссз12630 0.0 101222
07:00+9сз126612 0.0 101222
10:00+14зсз34460 0.0 1013583
13:00+17сз44410 0.0 10121622
16:00+18з453434 0.0 10102146
19:00+17сз443766 0.0 10111412
22:00+14сз474983 0.0 1013254
9 марта, вт
вт901:00+12ссз236392 0.0 101492
04:00+11св3469100 0.0 1013102
07:00+10с3372100 0.0 101447
10:00+12ссв454985 0.0 1015663
13:00+15с323978 0.0 10141134
16:00+17в123564 0.0 10122091
19:00+10ссз9117282 2.8 1013585
22:00+10ссв5575100 8.3 1016562
10 марта, ср
ср1001:00+10св467593 8.3 1017490
04:00+10ссв377499 0.0 1016474
07:00+9с6107090 0.0 1017462
10:00+11ссв796196 0.0 1019874
13:00+14св785174 0.0 10191359
16:00+14всв674899 0.1 10181566
19:00+13всв574780 0.1 1019350
22:00+11ссв6104831 0.0 1023281
11 марта, чт
чт1101:00+9ссв596116 0.0 1024258
04:00+8ссв47670 0.0 1024155
07:00+7с45700 0.0 102687
10:00+10ссв68470 0.0 1027887
13:00+13всв56280 0.0 10251308
16:00+15всв67240 0.0 10221477
19:00+12в58370 0.0 1023214
22:00+10всв23470 0.0 102535
12 марта, пт
пт1201:00+8ссв22500 0.0 102522
04:00+7св22530 0.0 102322
07:00+6св12550 0.0 102222
10:00+11св22350 0.0 1023550
13:00+14ссв34250 0.0 1021928
16:00+17в44180 0.0 10171281
19:00+15ссз12280 0.0 101724
22:00+13вюв333211 0.0 101828